Time,TemperatureF,DewpointF,PressureIn,WindDirection,WindDirectionDegrees,WindSpeedMPH,WindSpeedGustMPH,Humidity,HourlyPrecipIn,Conditions,Clouds,dailyrainin,SoftwareType,DateUTC
2013-06-22 00:00:00,82.5,73.0,29.73,South,170,12.0,12.0,73,0.00,,,0.00,Wunderground v.1.15,2013-06-22 05:00:00,
2013-06-22 00:10:00,82.7,72.7,29.73,South,191,13.0,13.0,72,0.00,,,0.00,Wunderground v.1.15,2013-06-22 05:10:00,
2013-06-22 00:20:00,82.7,72.7,29.73,South,183,11.0,12.0,72,0.00,,,0.00,Wunderground v.1.15,2013-06-22 05:20:00,
2013-06-22 00:30:00,82.9,72.9,29.74,South,191,12.0,16.0,72,0.00,,,0.00,Wunderground v.1.15,2013-06-22 05:30:00,
2013-06-22 00:40:00,83.0,72.6,29.74,South,190,13.0,14.0,71,0.00,,,0.00,Wunderground v.1.15,2013-06-22 05:40:00,
2013-06-22 00:50:00,82.7,72.7,29.74,South,181,11.0,17.0,72,0.00,,,0.00,Wunderground v.1.15,2013-06-22 05:50:00,
2013-06-22 01:00:00,82.5,72.6,29.73,SSW,210,12.0,13.0,72,0.00,,,0.00,Wunderground v.1.15,2013-06-22 06:00:00,
2013-06-22 01:10:00,82.4,72.5,29.73,SSW,195,12.0,12.0,72,0.00,,,0.00,Wunderground v.1.15,2013-06-22 06:10:00,
2013-06-22 01:15:00,82.3,72.8,29.73,SW,222,11.0,12.0,73,0.00,,,0.00,Wunderground v.1.15,2013-06-22 06:15:00,
2013-06-22 01:20:00,82.3,72.8,29.73,SSW,207,11.0,11.0,73,0.00,,,0.00,Wunderground v.1.15,2013-06-22 06:20:00,
2013-06-22 01:30:00,82.5,72.6,29.73,South,185,11.0,11.0,72,0.00,,,0.00,Wunderground v.1.15,2013-06-22 06:30:00,
2013-06-22 01:40:00,82.6,72.7,29.74,SW,227,10.0,14.0,72,0.00,,,0.00,Wunderground v.1.15,2013-06-22 06:40:00,
2013-06-22 01:50:00,82.7,72.7,29.75,SW,221,10.0,12.0,72,0.00,,,0.00,Wunderground v.1.15,2013-06-22 06:50:00,
2013-06-22 02:00:00,82.7,73.2,29.76,SW,225,9.0,9.0,73,0.00,,,0.00,Wunderground v.1.15,2013-06-22 07:00:00,
2013-06-22 02:10:00,82.6,73.1,29.77,SW,233,9.0,9.0,73,0.00,,,0.00,Wunderground v.1.15,2013-06-22 07:10:00,
2013-06-22 02:15:00,82.5,73.0,29.77,WSW,241,9.0,9.0,73,0.00,,,0.00,Wunderground v.1.15,2013-06-22 07:15:00,
2013-06-22 02:20:00,82.5,73.0,29.77,SSW,207,9.0,12.0,73,0.00,,,0.00,Wunderground v.1.15,2013-06-22 07:20:00,
2013-06-22 02:30:00,82.3,73.2,29.81,WNW,294,9.0,11.0,74,0.00,,,0.00,Wunderground v.1.15,2013-06-22 07:30:00,
2013-06-22 02:40:00,81.4,61.5,29.83,North,352,7.0,7.0,51,0.00,,,0.00,Wunderground v.1.15,2013-06-22 07:40:00,
2013-06-22 02:50:00,80.1,60.9,29.82,NNW,328,9.0,9.0,52,0.00,,,0.00,Wunderground v.1.15,2013-06-22 07:50:00,
2013-06-22 03:00:00,78.8,61.3,29.85,NE,53,7.0,12.0,55,0.00,,,0.00,Wunderground v.1.15,2013-06-22 08:00:00,
2013-06-22 03:10:00,75.6,63.9,29.85,NNE,13,8.0,10.0,67,1.66,,,0.07,Wunderground v.1.15,2013-06-22 08:10:00,
2013-06-22 03:15:00,72.8,64.0,29.83,North,349,8.0,10.0,74,0.20,,,0.12,Wunderground v.1.15,2013-06-22 08:15:00,
2013-06-22 03:25:00,70.9,64.1,29.83,North,352,7.0,9.0,79,0.08,,,0.13,Wunderground v.1.15,2013-06-22 08:25:00,
2013-06-22 03:35:00,70.9,64.1,29.82,NNE,24,7.0,7.0,79,0.04,,,0.13,Wunderground v.1.15,2013-06-22 08:35:00,
2013-06-22 03:45:00,70.9,64.4,29.79,NNE,18,7.0,8.0,80,0.00,,,0.13,Wunderground v.1.15,2013-06-22 08:45:00,
2013-06-22 03:55:00,70.5,65.1,29.81,ENE,68,7.0,7.0,83,0.00,,,0.13,Wunderground v.1.15,2013-06-22 08:55:00,
2013-06-22 04:00:00,70.0,64.6,29.81,SE,139,4.0,4.0,83,0.00,,,0.13,Wunderground v.1.15,2013-06-22 09:00:00,
2013-06-22 04:10:00,69.2,64.5,29.79,ESE,121,2.0,4.0,85,0.00,,,0.13,Wunderground v.1.15,2013-06-22 09:10:00,
2013-06-22 04:15:00,69.1,64.4,29.78,NNE,25,2.0,4.0,85,0.00,,,0.13,Wunderground v.1.15,2013-06-22 09:15:00,
2013-06-22 04:25:00,69.5,64.5,29.80,ESE,107,3.0,4.0,84,0.00,,,0.13,Wunderground v.1.15,2013-06-22 09:25:00,
2013-06-22 04:35:00,69.0,64.3,29.82,WNW,295,1.0,2.0,85,0.00,,,0.13,Wunderground v.1.15,2013-06-22 09:35:00,
2013-06-22 04:45:00,68.7,64.7,29.83,SE,133,2.0,2.0,87,0.00,,,0.13,Wunderground v.1.15,2013-06-22 09:45:00,
2013-06-22 04:55:00,68.5,64.5,29.83,SE,132,1.0,2.0,87,0.00,,,0.13,Wunderground v.1.15,2013-06-22 09:55:00,
2013-06-22 05:00:00,68.6,64.2,29.83,SE,132,0.0,0.0,86,0.00,,,0.13,Wunderground v.1.15,2013-06-22 10:00:00,
2013-06-22 05:10:00,68.7,64.7,29.83,SE,124,0.0,0.0,87,0.00,,,0.13,Wunderground v.1.15,2013-06-22 10:10:00,
2013-06-22 05:20:00,69.2,65.2,29.86,NNW,347,2.0,5.0,87,0.00,,,0.13,Wunderground v.1.15,2013-06-22 10:20:00,
2013-06-22 05:30:00,69.4,65.4,29.86,NE,51,3.0,3.0,87,0.00,,,0.13,Wunderground v.1.15,2013-06-22 10:30:00,
2013-06-22 05:35:00,69.6,65.2,29.86,North,360,1.0,4.0,86,0.00,,,0.13,Wunderground v.1.15,2013-06-22 10:35:00,
2013-06-22 05:45:00,69.4,65.7,29.87,East,82,2.0,2.0,88,0.00,,,0.13,Wunderground v.1.15,2013-06-22 10:45:00,
2013-06-22 05:55:00,69.4,66.0,29.88,NNE,20,1.0,2.0,89,0.00,,,0.13,Wunderground v.1.15,2013-06-22 10:55:00,
2013-06-22 06:00:00,69.5,66.4,29.88,North,350,2.0,2.0,90,0.00,,,0.13,Wunderground v.1.15,2013-06-22 11:00:00,
2013-06-22 06:10:00,69.7,66.3,29.89,West,281,2.0,2.0,89,0.00,,,0.13,Wunderground v.1.15,2013-06-22 11:10:00,
2013-06-22 06:20:00,70.2,65.5,29.88,NNE,18,2.0,3.0,85,0.00,,,0.13,Wunderground v.1.15,2013-06-22 11:20:00,
2013-06-22 06:30:00,70.9,65.8,29.87,NE,38,5.0,6.0,84,0.00,,,0.13,Wunderground v.1.15,2013-06-22 11:30:00,
2013-06-22 06:40:00,70.3,65.9,29.85,SE,134,5.0,5.0,86,0.00,,,0.13,Wunderground v.1.15,2013-06-22 11:40:00,
2013-06-22 06:50:00,70.1,65.7,29.86,East,98,3.0,3.0,86,0.00,,,0.13,Wunderground v.1.15,2013-06-22 11:50:00,
2013-06-22 07:00:00,70.2,65.8,29.84,ESE,121,3.0,3.0,86,0.00,,,0.13,Wunderground v.1.15,2013-06-22 12:00:00,
2013-06-22 07:10:00,70.3,65.9,29.84,SE,139,1.0,2.0,86,0.00,,,0.13,Wunderground v.1.15,2013-06-22 12:10:00,
2013-06-22 07:20:00,70.5,66.4,29.84,NE,41,1.0,2.0,87,0.00,,,0.13,Wunderground v.1.15,2013-06-22 12:20:00,
2013-06-22 07:30:00,70.7,66.6,29.85,WNW,293,2.0,3.0,87,0.00,,,0.13,Wunderground v.1.15,2013-06-22 12:30:00,
2013-06-22 07:40:00,70.7,66.3,29.85,NNE,13,2.0,4.0,86,0.00,,,0.13,Wunderground v.1.15,2013-06-22 12:40:00,
2013-06-22 07:50:00,71.8,66.0,29.88,NW,320,6.0,6.0,82,0.00,,,0.13,Wunderground v.1.15,2013-06-22 12:50:00,
2013-06-22 08:00:00,70.8,65.7,29.89,NNW,340,10.0,10.0,84,0.00,,,0.13,Wunderground v.1.15,2013-06-22 13:00:00,
2013-06-22 08:10:00,70.4,65.7,29.89,North,4,8.0,11.0,85,0.00,,,0.13,Wunderground v.1.15,2013-06-22 13:10:00,
2013-06-22 08:20:00,70.6,65.5,29.90,North,6,10.0,10.0,84,0.00,,,0.13,Wunderground v.1.15,2013-06-22 13:20:00,
2013-06-22 08:30:00,70.4,65.7,29.91,NW,318,9.0,9.0,85,0.00,,,0.13,Wunderground v.1.15,2013-06-22 13:30:00,
2013-06-22 08:40:00,70.1,65.7,29.91,North,352,9.0,11.0,86,0.00,,,0.13,Wunderground v.1.15,2013-06-22 13:40:00,
2013-06-22 08:50:00,69.5,65.8,29.90,NNE,16,13.0,13.0,88,0.00,,,0.13,Wunderground v.1.15,2013-06-22 13:50:00,
2013-06-22 09:00:00,69.2,65.8,29.92,NNE,20,12.0,12.0,89,0.00,,,0.13,Wunderground v.1.15,2013-06-22 14:00:00,
2013-06-22 09:10:00,69.0,65.9,29.95,WNW,302,6.0,6.0,90,0.00,,,0.13,Wunderground v.1.15,2013-06-22 14:10:00,
2013-06-22 09:15:00,68.8,66.1,29.93,NE,46,6.0,13.0,91,0.22,,,0.15,Wunderground v.1.15,2013-06-22 14:15:00,
2013-06-22 09:20:00,68.4,66.0,29.90,NNE,13,10.0,10.0,92,0.37,,,0.19,Wunderground v.1.15,2013-06-22 14:20:00,
2013-06-22 09:30:00,68.1,65.7,29.86,NE,37,11.0,11.0,92,0.12,,,0.22,Wunderground v.1.15,2013-06-22 14:30:00,
2013-06-22 09:40:00,67.2,65.4,29.82,ESE,110,10.0,12.0,94,0.04,,,0.22,Wunderground v.1.15,2013-06-22 14:40:00,
2013-06-22 09:45:00,66.9,65.4,29.81,East,79,12.0,13.0,95,0.00,,,0.22,Wunderground v.1.15,2013-06-22 14:45:00,
2013-06-22 09:55:00,66.9,65.4,29.81,SE,129,13.0,24.0,95,0.00,,,0.22,Wunderground v.1.15,2013-06-22 14:55:00,
2013-06-22 10:00:00,67.2,65.7,29.80,ESE,120,13.0,13.0,95,0.00,,,0.22,Wunderground v.1.15,2013-06-22 15:00:00,
2013-06-22 10:05:00,68.0,66.5,29.80,SSE,162,12.0,13.0,95,0.00,,,0.22,Wunderground v.1.15,2013-06-22 15:05:00,
2013-06-22 10:15:00,69.8,66.7,29.79,ESE,120,12.0,12.0,90,0.00,,,0.22,Wunderground v.1.15,2013-06-22 15:15:00,
2013-06-22 10:25:00,71.1,66.7,29.80,SE,134,12.0,18.0,86,0.00,,,0.22,Wunderground v.1.15,2013-06-22 15:25:00,
2013-06-22 10:35:00,71.9,66.8,29.80,ENE,77,10.0,11.0,84,0.00,,,0.22,Wunderground v.1.15,2013-06-22 15:35:00,
2013-06-22 10:45:00,74.2,68.0,29.81,SSE,147,11.0,12.0,81,0.00,,,0.22,Wunderground v.1.15,2013-06-22 15:45:00,
2013-06-22 10:55:00,76.9,68.4,29.81,East,101,10.0,15.0,75,0.00,,,0.22,Wunderground v.1.15,2013-06-22 15:55:00,
2013-06-22 11:00:00,77.9,68.1,29.80,SE,141,10.0,10.0,72,0.00,,,0.22,Wunderground v.1.15,2013-06-22 16:00:00,
2013-06-22 11:10:00,79.0,68.8,29.81,ESE,115,11.0,11.0,71,0.00,,,0.22,Wunderground v.1.15,2013-06-22 16:10:00,
2013-06-22 11:20:00,79.9,68.4,29.80,SE,127,11.0,11.0,68,0.00,,,0.22,Wunderground v.1.15,2013-06-22 16:20:00,
2013-06-22 11:30:00,80.3,67.9,29.80,SE,129,12.0,14.0,66,0.00,,,0.22,Wunderground v.1.15,2013-06-22 16:30:00,
2013-06-22 11:40:00,81.3,68.0,29.78,ESE,110,12.0,12.0,64,0.00,,,0.22,Wunderground v.1.15,2013-06-22 16:40:00,
2013-06-22 11:50:00,82.3,68.4,29.77,SE,142,12.0,18.0,63,0.00,,,0.22,Wunderground v.1.15,2013-06-22 16:50:00,
2013-06-22 12:00:00,83.1,67.8,29.76,ESE,120,13.0,15.0,60,0.00,,,0.22,Wunderground v.1.15,2013-06-22 17:00:00,
2013-06-22 12:10:00,83.3,68.4,29.77,SE,129,14.0,14.0,61,0.00,,,0.22,Wunderground v.1.15,2013-06-22 17:10:00,
2013-06-22 12:20:00,83.8,68.9,29.77,SSE,159,14.0,21.0,61,0.00,,,0.22,Wunderground v.1.15,2013-06-22 17:20:00,
2013-06-22 12:30:00,84.0,69.1,29.76,SSE,148,13.0,13.0,61,0.00,,,0.22,Wunderground v.1.15,2013-06-22 17:30:00,
2013-06-22 12:40:00,84.3,70.3,29.76,SSE,158,13.0,15.0,63,0.00,,,0.22,Wunderground v.1.15,2013-06-22 17:40:00,
2013-06-22 12:50:00,84.5,71.9,29.76,SSE,161,12.0,15.0,66,0.00,,,0.22,Wunderground v.1.15,2013-06-22 17:50:00,
2013-06-22 13:00:00,84.5,71.9,29.76,SE,134,13.0,20.0,66,0.00,,,0.22,Wunderground v.1.15,2013-06-22 18:00:00,
2013-06-22 13:10:00,85.0,73.3,29.75,SE,143,13.0,13.0,68,0.00,,,0.22,Wunderground v.1.15,2013-06-22 18:10:00,
2013-06-22 13:15:00,85.4,72.7,29.75,ENE,73,12.0,13.0,66,0.00,,,0.22,Wunderground v.1.15,2013-06-22 18:15:00,
2013-06-22 13:25:00,85.5,73.3,29.76,South,172,12.0,20.0,67,0.00,,,0.22,Wunderground v.1.15,2013-06-22 18:25:00,
2013-06-22 13:35:00,84.9,72.7,29.75,SE,142,11.0,13.0,67,0.00,,,0.22,Wunderground v.1.15,2013-06-22 18:35:00,
2013-06-22 13:45:00,84.9,73.6,29.75,SE,139,11.0,12.0,69,0.00,,,0.22,Wunderground v.1.15,2013-06-22 18:45:00,
2013-06-22 13:55:00,85.0,73.3,29.74,SE,131,10.0,11.0,68,0.00,,,0.22,Wunderground v.1.15,2013-06-22 18:55:00,
2013-06-22 14:00:00,85.0,74.1,29.74,ESE,115,10.0,12.0,70,0.00,,,0.22,Wunderground v.1.15,2013-06-22 19:00:00,
2013-06-22 14:10:00,85.2,73.4,29.74,SSE,164,10.0,12.0,68,0.00,,,0.22,Wunderground v.1.15,2013-06-22 19:10:00,
2013-06-22 14:20:00,85.6,73.4,29.74,SSE,159,12.0,13.0,67,0.00,,,0.22,Wunderground v.1.15,2013-06-22 19:20:00,
2013-06-22 14:25:00,85.6,72.9,29.74,SSE,163,12.0,13.0,66,0.00,,,0.22,Wunderground v.1.15,2013-06-22 19:25:00,
2013-06-22 14:35:00,85.7,73.9,29.73,SSE,164,12.0,12.0,68,0.00,,,0.22,Wunderground v.1.15,2013-06-22 19:35:00,
2013-06-22 14:45:00,85.9,73.7,29.73,SSE,167,10.0,15.0,67,0.00,,,0.22,Wunderground v.1.15,2013-06-22 19:45:00,
2013-06-22 14:55:00,86.6,73.9,29.72,SSE,150,10.0,12.0,66,0.00,,,0.22,Wunderground v.1.15,2013-06-22 19:55:00,
2013-06-22 15:00:00,86.9,74.2,29.72,SSE,147,11.0,11.0,66,0.00,,,0.22,Wunderground v.1.15,2013-06-22 20:00:00,
2013-06-22 15:10:00,87.5,74.7,29.72,SSE,166,9.0,9.0,66,0.00,,,0.22,Wunderground v.1.15,2013-06-22 20:10:00,
2013-06-22 15:20:00,88.1,74.8,29.72,SE,134,11.0,13.0,65,0.00,,,0.22,Wunderground v.1.15,2013-06-22 20:20:00,
2013-06-22 15:30:00,88.8,74.1,29.71,SSE,164,12.0,13.0,62,0.00,,,0.22,Wunderground v.1.15,2013-06-22 20:30:00,
2013-06-22 15:40:00,89.3,75.5,29.71,SSE,166,13.0,15.0,64,0.00,,,0.22,Wunderground v.1.15,2013-06-22 20:40:00,
2013-06-22 15:50:00,88.6,73.9,29.72,South,188,16.0,16.0,62,0.00,,,0.22,Wunderground v.1.15,2013-06-22 20:50:00,
2013-06-22 16:00:00,88.2,72.6,29.71,SSE,165,14.0,20.0,60,0.00,,,0.22,Wunderground v.1.15,2013-06-22 21:00:00,
2013-06-22 16:10:00,87.9,73.7,29.71,SSE,166,15.0,15.0,63,0.00,,,0.22,Wunderground v.1.15,2013-06-22 21:10:00,
2013-06-22 16:15:00,88.3,75.0,29.71,South,188,13.0,15.0,65,0.00,,,0.22,Wunderground v.1.15,2013-06-22 21:15:00,
2013-06-22 16:25:00,88.7,73.5,29.71,SSE,155,12.0,12.0,61,0.00,,,0.22,Wunderground v.1.15,2013-06-22 21:25:00,
2013-06-22 16:30:00,88.7,73.0,29.70,South,169,12.0,12.0,60,0.00,,,0.22,Wunderground v.1.15,2013-06-22 21:30:00,
2013-06-22 16:40:00,88.6,73.4,29.70,SSW,193,14.0,15.0,61,0.00,,,0.22,Wunderground v.1.15,2013-06-22 21:40:00,
2013-06-22 16:50:00,88.2,73.5,29.70,South,179,13.0,13.0,62,0.00,,,0.22,Wunderground v.1.15,2013-06-22 21:50:00,
2013-06-22 17:00:00,87.8,72.7,29.70,SSE,165,11.0,15.0,61,0.00,,,0.22,Wunderground v.1.15,2013-06-22 22:00:00,
2013-06-22 17:10:00,87.8,72.7,29.70,SW,214,13.0,13.0,61,0.00,,,0.22,Wunderground v.1.15,2013-06-22 22:10:00,
2013-06-22 17:15:00,87.7,73.5,29.70,South,174,12.0,16.0,63,0.00,,,0.22,Wunderground v.1.15,2013-06-22 22:15:00,
2013-06-22 17:20:00,87.8,72.7,29.70,SSW,201,12.0,12.0,61,0.00,,,0.22,Wunderground v.1.15,2013-06-22 22:20:00,
2013-06-22 17:30:00,88.1,72.0,29.70,SSE,159,11.0,13.0,59,0.00,,,0.22,Wunderground v.1.15,2013-06-22 22:30:00,
2013-06-22 17:40:00,88.8,71.6,29.70,SSW,198,14.0,14.0,57,0.00,,,0.22,Wunderground v.1.15,2013-06-22 22:40:00,
2013-06-22 17:50:00,89.2,72.0,29.69,SSE,160,13.0,17.0,57,0.00,,,0.22,Wunderground v.1.15,2013-06-22 22:50:00,
2013-06-22 18:00:00,89.3,72.1,29.69,SE,138,15.0,15.0,57,0.00,,,0.22,Wunderground v.1.15,2013-06-22 23:00:00,
2013-06-22 18:10:00,89.3,70.5,29.68,SSE,154,13.0,13.0,54,0.00,,,0.22,Wunderground v.1.15,2013-06-22 23:10:00,
2013-06-22 18:15:00,89.2,70.9,29.69,SSW,200,15.0,15.0,55,0.00,,,0.22,Wunderground v.1.15,2013-06-22 23:15:00,
2013-06-22 18:20:00,89.3,72.1,29.69,South,177,14.0,14.0,57,0.00,,,0.22,Wunderground v.1.15,2013-06-22 23:20:00,
2013-06-22 18:30:00,89.0,70.7,29.68,SSE,158,14.0,14.0,55,0.00,,,0.22,Wunderground v.1.15,2013-06-22 23:30:00,
2013-06-22 18:40:00,88.5,69.7,29.68,South,173,14.0,16.0,54,0.00,,,0.22,Wunderground v.1.15,2013-06-22 23:40:00,
2013-06-22 18:50:00,88.2,70.5,29.68,SSE,158,14.0,15.0,56,0.00,,,0.22,Wunderground v.1.15,2013-06-22 23:50:00,
2013-06-22 19:00:00,87.8,69.6,29.68,SSW,206,13.0,13.0,55,0.00,,,0.22,Wunderground v.1.15,2013-06-23 00:00:00,
2013-06-22 19:10:00,87.5,69.9,29.68,SSE,160,14.0,14.0,56,0.00,,,0.22,Wunderground v.1.15,2013-06-23 00:10:00,
2013-06-22 19:15:00,87.3,69.7,29.68,SSE,162,13.0,14.0,56,0.00,,,0.22,Wunderground v.1.15,2013-06-23 00:15:00,
2013-06-22 19:25:00,87.0,69.9,29.68,SSE,158,12.0,18.0,57,0.00,,,0.22,Wunderground v.1.15,2013-06-23 00:25:00,
2013-06-22 19:30:00,86.9,69.3,29.68,South,169,12.0,18.0,56,0.00,,,0.22,Wunderground v.1.15,2013-06-23 00:30:00,
2013-06-22 19:40:00,86.5,69.5,29.68,South,170,12.0,12.0,57,0.00,,,0.22,Wunderground v.1.15,2013-06-23 00:40:00,
2013-06-22 19:50:00,86.1,69.6,29.69,South,176,11.0,11.0,58,0.00,,,0.22,Wunderground v.1.15,2013-06-23 00:50:00,
2013-06-22 20:00:00,85.7,70.2,29.69,SE,131,10.0,10.0,60,0.00,,,0.22,Wunderground v.1.15,2013-06-23 01:00:00,
2013-06-22 20:05:00,85.5,70.0,29.68,SE,143,10.0,10.0,60,0.00,,,0.22,Wunderground v.1.15,2013-06-23 01:05:00,
2013-06-22 20:15:00,84.6,70.1,29.68,SSE,155,9.0,11.0,62,0.00,,,0.22,Wunderground v.1.15,2013-06-23 01:15:00,
2013-06-22 20:25:00,83.7,70.2,29.69,SSE,155,8.0,12.0,64,0.00,,,0.22,Wunderground v.1.15,2013-06-23 01:25:00,
2013-06-22 20:35:00,83.4,69.9,29.69,SE,146,9.0,9.0,64,0.00,,,0.22,Wunderground v.1.15,2013-06-23 01:35:00,
2013-06-22 20:45:00,83.1,70.1,29.68,SSE,151,9.0,10.0,65,0.00,,,0.22,Wunderground v.1.15,2013-06-23 01:45:00,
2013-06-22 20:55:00,82.4,69.9,29.68,SSE,163,8.0,9.0,66,0.00,,,0.22,Wunderground v.1.15,2013-06-23 01:55:00,
2013-06-22 21:00:00,82.4,69.9,29.68,SSE,158,9.0,11.0,66,0.00,,,0.22,Wunderground v.1.15,2013-06-23 02:00:00,
2013-06-22 21:10:00,82.3,69.8,29.68,SSE,154,10.0,10.0,66,0.00,,,0.22,Wunderground v.1.15,2013-06-23 02:10:00,
2013-06-22 21:15:00,82.2,70.1,29.68,SSE,164,10.0,11.0,67,0.00,,,0.22,Wunderground v.1.15,2013-06-23 02:15:00,
2013-06-22 21:25:00,82.0,70.0,29.69,South,174,10.0,10.0,67,0.00,,,0.22,Wunderground v.1.15,2013-06-23 02:25:00,
2013-06-22 21:35:00,81.9,70.3,29.69,SSE,156,10.0,14.0,68,0.00,,,0.22,Wunderground v.1.15,2013-06-23 02:35:00,
2013-06-22 21:40:00,81.8,70.2,29.69,SE,146,10.0,10.0,68,0.00,,,0.22,Wunderground v.1.15,2013-06-23 02:40:00,
2013-06-22 21:50:00,81.3,70.2,29.70,South,172,9.0,9.0,69,0.00,,,0.22,Wunderground v.1.15,2013-06-23 02:50:00,
2013-06-22 22:00:00,81.4,70.2,29.71,SSE,156,10.0,10.0,69,0.00,,,0.22,Wunderground v.1.15,2013-06-23 03:00:00,
2013-06-22 22:10:00,81.2,70.1,29.72,South,172,9.0,9.0,69,0.00,,,0.22,Wunderground v.1.15,2013-06-23 03:10:00,
2013-06-22 22:15:00,81.2,70.5,29.72,SSE,148,10.0,10.0,70,0.00,,,0.22,Wunderground v.1.15,2013-06-23 03:15:00,
2013-06-22 22:25:00,81.0,70.7,29.73,SE,142,9.0,10.0,71,0.00,,,0.22,Wunderground v.1.15,2013-06-23 03:25:00,
2013-06-22 22:35:00,80.8,70.5,29.73,SSE,151,9.0,10.0,71,0.00,,,0.22,Wunderground v.1.15,2013-06-23 03:35:00,
2013-06-22 22:45:00,80.2,70.4,29.73,SSE,149,8.0,11.0,72,0.00,,,0.22,Wunderground v.1.15,2013-06-23 03:45:00,
2013-06-22 22:55:00,79.8,70.4,29.72,South,179,8.0,8.0,73,0.00,,,0.22,Wunderground v.1.15,2013-06-23 03:55:00,
2013-06-22 23:00:00,79.8,70.4,29.72,SSE,153,8.0,9.0,73,0.00,,,0.22,Wunderground v.1.15,2013-06-23 04:00:00,
2013-06-22 23:05:00,79.7,70.7,29.73,South,169,9.0,9.0,74,0.00,,,0.22,Wunderground v.1.15,2013-06-23 04:05:00,
2013-06-22 23:10:00,79.7,70.7,29.72,SSE,148,9.0,12.0,74,0.00,,,0.22,Wunderground v.1.15,2013-06-23 04:10:00,
2013-06-22 23:15:00,79.7,70.7,29.72,SE,144,10.0,12.0,74,0.00,,,0.22,Wunderground v.1.15,2013-06-23 04:15:00,
2013-06-22 23:20:00,79.7,70.7,29.72,SSE,149,10.0,11.0,74,0.00,,,0.22,Wunderground v.1.15,2013-06-23 04:20:00,
2013-06-22 23:25:00,79.6,71.0,29.72,SSE,164,10.0,11.0,75,0.00,,,0.22,Wunderground v.1.15,2013-06-23 04:25:00,
2013-06-22 23:30:00,79.5,70.9,29.72,SSE,167,10.0,10.0,75,0.00,,,0.22,Wunderground v.1.15,2013-06-23 04:30:00,
2013-06-22 23:35:00,79.5,70.9,29.72,SSE,165,10.0,11.0,75,0.00,,,0.22,Wunderground v.1.15,2013-06-23 04:35:00,
2013-06-22 23:45:00,79.3,70.7,29.71,SSE,152,10.0,13.0,75,0.00,,,0.22,Wunderground v.1.15,2013-06-23 04:45:00,
2013-06-22 23:55:00,79.0,70.8,29.71,SSW,193,10.0,12.0,76,0.00,,,0.22,Wunderground v.1.15,2013-06-23 04:55:00,